TimeCST,TemperatureF,Dew PointF,Humidity,Sea Level PressureIn,VisibilityMPH,Wind Direction,Wind SpeedMPH,Gust SpeedMPH,PrecipitationIn,Events,Conditions,WindDirDegrees,DateUTC
12:53 AM,-9999,-9999,N/A,30.12,-9999.0,North,-9999.0,-,N/A,,Unknown,0,2014-01-12 06:53:00
1:53 AM,-9999,-9999,N/A,30.13,-9999.0,North,-9999.0,-,N/A,,Unknown,0,2014-01-12 07:53:00
2:53 AM,-9999,-9999,N/A,30.13,-9999.0,North,-9999.0,-,N/A,,Unknown,0,2014-01-12 08:53:00
3:53 AM,-9999,-9999,N/A,30.14,-9999.0,North,-9999.0,-,N/A,,Unknown,0,2014-01-12 09:53:00
4:53 AM,-9999,-9999,N/A,30.14,-9999.0,North,-9999.0,-,N/A,,Unknown,0,2014-01-12 10:53:00
5:53 AM,-9999,-9999,N/A,30.14,-9999.0,North,-9999.0,-,N/A,,Unknown,0,2014-01-12 11:53:00
6:53 AM,-9999,-9999,N/A,30.16,-9999.0,North,-9999.0,-,N/A,,Unknown,0,2014-01-12 12:53:00
7:53 AM,-9999,-9999,N/A,30.18,-9999.0,North,-9999.0,-,N/A,,Unknown,0,2014-01-12 13:53:00
8:53 AM,-9999,-9999,N/A,30.19,-9999.0,North,-9999.0,-,N/A,,Unknown,0,2014-01-12 14:53:00
9:53 AM,59.0,35.6,42,30.21,10.0,South,8.1,-,N/A,,Clear,170,2014-01-12 15:53:00
10:53 AM,64.4,35.6,34,30.19,10.0,South,5.8,-,N/A,,Clear,180,2014-01-12 16:53:00
11:53 AM,64.4,35.6,34,30.15,10.0,South,5.8,-,N/A,,Clear,180,2014-01-12 17:53:00
12:53 PM,68.0,32.0,26,30.12,10.0,North,-9999.0,-,N/A,,Clear,0,2014-01-12 18:53:00
1:53 PM,68.0,30.2,24,30.10,10.0,North,-9999.0,-,N/A,,Clear,0,2014-01-12 19:53:00
2:53 PM,68.0,30.2,24,-9999,10.0,North,-9999.0,-,N/A,,Clear,0,2014-01-12 20:53:00
3:53 PM,66.2,30.2,26,30.09,10.0,North,-9999.0,-,N/A,,Clear,0,2014-01-12 21:53:00
4:53 PM,66.2,30.2,26,30.09,10.0,North,-9999.0,-,N/A,,Clear,0,2014-01-12 22:53:00
5:53 PM,60.8,35.6,39,30.10,10.0,North,-9999.0,-,N/A,,Mostly Cloudy,0,2014-01-12 23:53:00
6:53 PM,60.8,35.6,39,30.10,10.0,North,-9999.0,-,N/A,,Mostly Cloudy,0,2014-01-13 00:53:00
7:53 PM,59.0,37.4,45,30.11,10.0,North,-9999.0,-,N/A,,Mostly Cloudy,0,2014-01-13 01:53:00
7:58 PM,-9999,-9999,N/A,-9999,10.0,North,-9999.0,-,N/A,,Scattered Clouds,0,2014-01-13 01:58:00
8:53 PM,59.0,37.4,45,30.09,10.0,ESE,9.2,-,N/A,,Mostly Cloudy,120,2014-01-13 02:53:00
9:53 PM,59.0,37.4,45,30.06,10.0,ESE,9.2,-,N/A,,Scattered Clouds,120,2014-01-13 03:53:00
10:53 PM,-9999,-9999,N/A,-9999,-9999.0,North,-9999.0,-,N/A,,Unknown,0,2014-01-13 04:53:00
11:53 PM,-9999,-9999,N/A,-9999,-9999.0,North,-9999.0,-,N/A,,Unknown,0,2014-01-13 05:53:00